Find Starlink 6189

NORAD ID: 56377 Int'l Des: 2023-061 Owner: SPXS Country: US Constellation: starlink operational
LEOCIRCULAR

現在のビュー

3D地球を読み込み中...

About Starlink 6189

Starlink 6189 (NORAD 56377) is a starlink constellation satellite (v1.5) launched May 4, 2023 by SPXS of US. It operates in LEO, CIRCULAR orbit with a mass of 305.00 kg.

次回通過

Passes for default location (London). Set your location on the main map for personalized predictions.

高度履歴

Loading altitude history...

軌道要素

1 56377U 23061D 26248.10922688 -.00000389 00000-0 -45990-5 0 9992
2 56377 43.0027 265.1374 0001084 247.4759 112.5978 15.27587258184180
Epoch: Sep 5, 2026 • Age: 14 hours

現在のステータス

高度 483.1 km
遠地点 / 近地点 N/A
速度 7.63 km/s
衛星直下点 21.98°N, 49.13°E
打ち上げ日 May 4, 2023
運用期間 3.3 years
タイプ internet

技術仕様

分類 Payload
質量 305.00 kg
乾燥質量 290.00 kg
総質量 305.00 kg
長さ 0.20 m
直径 2.80 m
スパン 9.00 m
形状 Box + pan
製造者 SPXS
バスタイプ Starlink
フェーズステータス In Orbit
所有者/国 SPXS/US

Most Searched